| time (UTC) | temp F | wind direction | speed MPH | gust MPH | rain 1hr in | rain 24hr in | rain mn in | humidity % | barometer mb |
| 20260507232634 | 75 | 83 | 1.0 | 2.0 | 0.00 | 0.00 | 0.00 | 25 | 1014.7 |
| 20260507231632 | 76 | 92 | 3.0 | 5.0 | 0.00 | 0.00 | 0.00 | 25 | 1014.8 |
| 20260507230629 | 76 | 199 | 3.0 | 5.0 | 0.00 | 0.00 | 0.00 | 25 | 1015.0 |
| 20260507225629 | 76 | 262 | 2.0 | 5.0 | 0.00 | 0.00 | 0.00 | 24 | 1015.0 |
| 20260507224621 | 77 | 192 | 3.0 | 4.0 | 0.00 | 0.00 | 0.00 | 25 | 1015.2 |
| 20260507223701 | 76 | 75 | 3.0 | 6.0 | 0.00 | 0.00 | 0.00 | 26 | 1015.3 |
| 20260507222618 | 75 | 210 | 2.0 | 4.0 | 0.00 | 0.00 | 0.00 | 25 | 1015.5 |
| 20260507221719 | 75 | 195 | 3.0 | 4.0 | 0.00 | 0.00 | 0.00 | 26 | 1015.7 |
| 20260507220637 | 75 | 171 | 4.0 | 6.0 | 0.00 | 0.00 | 0.00 | 25 | 1015.8 |
| 20260507215630 | 75 | 172 | 6.0 | 7.0 | 0.00 | 0.00 | 0.00 | 25 | 1015.8 |
| 20260507214629 | 74 | 230 | 3.0 | 5.0 | 0.00 | 0.00 | 0.00 | 27 | 1016.0 |
| 20260507213628 | 74 | 183 | 8.0 | 11.0 | 0.00 | 0.00 | 0.00 | 27 | 1016.2 |
| 20260507212646 | 75 | 195 | 5.0 | 8.0 | 0.00 | 0.00 | 0.00 | 28 | 1016.2 |
| 20260507211625 | 73 | 323 | 5.0 | 6.0 | 0.00 | 0.00 | 0.00 | 27 | 1016.3 |
| 20260507210619 | 73 | 188 | 3.0 | 5.0 | 0.00 | 0.00 | 0.00 | 27 | 1016.4 |
| 20260507205620 | 73 | 197 | 4.0 | 5.0 | 0.00 | 0.00 | 0.00 | 30 | 1016.4 |
| 20260507204635 | 73 | 185 | 7.0 | 12.0 | 0.00 | 0.00 | 0.00 | 30 | 1016.7 |
| 20260507203633 | 73 | 189 | 8.0 | 11.0 | 0.00 | 0.00 | 0.00 | 29 | 1017.0 |
| 20260507202633 | 72 | 193 | 5.0 | 9.0 | 0.00 | 0.00 | 0.00 | 31 | 1016.8 |
| 20260507201629 | 71 | 151 | 4.0 | 5.0 | 0.00 | 0.00 | 0.00 | 31 | 1016.9 |
| 20260507200651 | 72 | 180 | 7.0 | 11.0 | 0.00 | 0.00 | 0.00 | 28 | 1016.9 |
| 20260507195625 | 71 | 189 | 5.0 | 9.0 | 0.00 | 0.00 | 0.00 | 34 | 1016.9 |
| 20260507194621 | 71 | 195 | 7.0 | 9.0 | 0.00 | 0.00 | 0.00 | 33 | 1017.2 |
| 20260507193625 | 70 | 181 | 4.0 | 9.0 | 0.00 | 0.00 | 0.00 | 33 | 1017.0 |
| 20260507192622 | 71 | 171 | 8.0 | 11.0 | 0.00 | 0.00 | 0.00 | 34 | 1017.0 |
| 20260507191636 | 70 | 186 | 7.0 | 11.0 | 0.00 | 0.00 | 0.00 | 34 | 1017.3 |
| 20260507190639 | 69 | 180 | 8.0 | 15.0 | 0.00 | 0.00 | 0.00 | 35 | 1017.1 |
| 20260507185638 | 69 | 188 | 7.0 | 12.0 | 0.00 | 0.00 | 0.00 | 37 | 1017.2 |
| 20260507184650 | 68 | 228 | 5.0 | 10.0 | 0.00 | 0.00 | 0.00 | 37 | 1017.4 |
| 20260507183631 | 69 | 180 | 8.0 | 13.0 | 0.00 | 0.00 | 0.00 | 37 | 1017.3 |
| 20260507182625 | 68 | 215 | 5.0 | 10.0 | 0.00 | 0.00 | 0.00 | 40 | 1017.5 |
| 20260507181623 | 67 | 177 | 4.0 | 5.0 | 0.00 | 0.00 | 0.00 | 43 | 1017.4 |
| 20260507180625 | 67 | 184 | 8.0 | 11.0 | 0.00 | 0.00 | 0.00 | 42 | 1017.5 |
| 20260507175622 | 66 | 173 | 5.0 | 8.0 | 0.00 | 0.00 | 0.00 | 42 | 1017.6 |
| 20260507174634 | 67 | 198 | 4.0 | 6.0 | 0.00 | 0.00 | 0.00 | 44 | 1017.5 |
| 20260507173639 | 66 | 208 | 6.0 | 10.0 | 0.00 | 0.00 | 0.00 | 46 | 1017.7 |
| 20260507172631 | 65 | 183 | 6.0 | 8.0 | 0.00 | 0.00 | 0.00 | 45 | 1017.8 |
| 20260507171629 | 66 | 216 | 4.0 | 7.0 | 0.00 | 0.00 | 0.00 | 44 | 1017.8 |
| 20260507170629 | 65 | 196 | 4.0 | 5.0 | 0.00 | 0.00 | 0.00 | 46 | 1017.8 |
| 20260507165646 | 65 | 273 | 7.0 | 8.0 | 0.00 | 0.00 | 0.00 | 44 | 1017.9 |
| 20260507164621 | 65 | 228 | 5.0 | 7.0 | 0.00 | 0.00 | 0.00 | 45 | 1017.8 |
| 20260507163625 | 65 | 263 | 4.0 | 6.0 | 0.00 | 0.00 | 0.00 | 44 | 1018.0 |
| 20260507162619 | 65 | 238 | 6.0 | 9.0 | 0.00 | 0.00 | 0.00 | 43 | 1017.8 |
| 20260507161658 | 64 | 237 | 4.0 | 6.0 | 0.00 | 0.00 | 0.00 | 43 | 1017.7 |
| 20260507160634 | 65 | 267 | 5.0 | 8.0 | 0.00 | 0.00 | 0.00 | 42 | 1017.7 |
| 20260507155632 | 64 | 224 | 4.0 | 6.0 | 0.00 | 0.00 | 0.00 | 43 | 1017.8 |
| 20260507154630 | 63 | 262 | 2.0 | 4.0 | 0.00 | 0.00 | 0.00 | 45 | 1017.7 |
| 20260507153627 | 63 | 249 | 3.0 | 5.0 | 0.00 | 0.00 | 0.00 | 43 | 1017.6 |
| 20260507152650 | 62 | 314 | 4.0 | 6.0 | 0.00 | 0.00 | 0.00 | 44 | 1017.6 |
| 20260507151626 | 62 | 325 | 6.0 | 8.0 | 0.00 | 0.00 | 0.00 | 46 | 1017.6 |
| 20260507150619 | 61 | 327 | 3.0 | 4.0 | 0.00 | 0.00 | 0.00 | 50 | 1017.3 |
| 20260507145617 | 61 | 222 | 3.0 | 4.0 | 0.00 | 0.00 | 0.00 | 51 | 1017.3 |
| 20260507144638 | 61 | 266 | 3.0 | 6.0 | 0.00 | 0.00 | 0.00 | 54 | 1017.4 |
| 20260507143638 | 60 | 266 | 3.0 | 5.0 | 0.00 | 0.00 | 0.00 | 56 | 1017.3 |
| 20260507142629 | 60 | 234 | 3.0 | 4.0 | 0.00 | 0.00 | 0.00 | 57 | 1017.3 |
| 20260507141633 | 59 | 0.0 | 0.0 | 0.00 | 0.00 | 0.00 | 60 | 1017.3 | |
| 20260507140625 | 58 | 49 | 3.0 | 4.0 | 0.00 | 0.00 | 0.00 | 66 | 1017.2 |
| 20260507135629 | 57 | 347 | 1.0 | 2.0 | 0.00 | 0.00 | 0.00 | 66 | 1017.1 |
| 20260507134623 | 58 | 333 | 4.0 | 4.0 | 0.00 | 0.00 | 0.00 | 62 | 1017.0 |
| 20260507133620 | 56 | 295 | 1.0 | 2.0 | 0.00 | 0.00 | 0.00 | 70 | 1016.8 |
| 20260507132620 | 55 | 234 | 2.0 | 5.0 | 0.00 | 0.00 | 0.00 | 71 | 1016.5 |
| 20260507131635 | 55 | 230 | 3.0 | 3.0 | 0.00 | 0.00 | 0.00 | 73 | 1016.7 |
| 20260507130655 | 55 | 202 | 3.0 | 4.0 | 0.00 | 0.00 | 0.00 | 73 | 1016.6 |
| 20260507125630 | 54 | 181 | 3.0 | 4.0 | 0.00 | 0.00 | 0.00 | 73 | 1016.6 |
| 20260507124631 | 54 | 200 | 5.0 | 7.0 | 0.00 | 0.00 | 0.00 | 76 | 1016.4 |
| 20260507123629 | 52 | 303 | 3.0 | 4.0 | 0.00 | 0.00 | 0.00 | 75 | 1016.6 |
| 20260507122623 | 53 | 322 | 2.0 | 3.0 | 0.00 | 0.00 | 0.00 | 73 | 1016.5 |
| 20260507121623 | 54 | 220 | 3.0 | 4.0 | 0.00 | 0.00 | 0.00 | 71 | 1016.3 |
| 20260507120621 | 54 | 350 | 2.0 | 3.0 | 0.00 | 0.00 | 0.00 | 71 | 1016.4 |
| 20260507115637 | 55 | 230 | 1.0 | 4.0 | 0.00 | 0.00 | 0.00 | 70 | 1016.3 |
| 20260507114640 | 54 | 209 | 4.0 | 7.0 | 0.00 | 0.00 | 0.00 | 68 | 1016.0 |
| 20260507113637 | 54 | 9 | 1.0 | 2.0 | 0.00 | 0.00 | 0.00 | 70 | 1016.2 |
| 20260507112631 | 55 | 187 | 3.0 | 7.0 | 0.00 | 0.00 | 0.00 | 67 | 1016.2 |
| 20260507111629 | 55 | 229 | 3.0 | 4.0 | 0.00 | 0.00 | 0.00 | 66 | 1016.5 |
| 20260507110629 | 55 | 0.0 | 1.0 | 0.00 | 0.00 | 0.00 | 68 | 1016.3 | |
| 20260507105626 | 56 | 16 | 1.0 | 2.0 | 0.00 | 0.00 | 0.00 | 66 | 1016.4 |
| 20260507104641 | 56 | 182 | 2.0 | 3.0 | 0.00 | 0.00 | 0.00 | 65 | 1016.2 |
| 20260507103622 | 57 | 229 | 5.0 | 8.0 | 0.00 | 0.00 | 0.00 | 66 | 1016.2 |
| 20260507102638 | 57 | 200 | 5.0 | 9.0 | 0.00 | 0.00 | 0.00 | 65 | 1016.2 |
| 20260507101633 | 57 | 213 | 2.0 | 4.0 | 0.00 | 0.00 | 0.00 | 63 | 1016.2 |
| 20260507100632 | 57 | 56 | 3.0 | 3.0 | 0.00 | 0.00 | 0.00 | 64 | 1016.1 |
| 20260507095637 | 59 | 227 | 5.0 | 6.0 | 0.00 | 0.00 | 0.00 | 60 | 1016.0 |
| 20260507094636 | 58 | 235 | 4.0 | 6.0 | 0.00 | 0.00 | 0.00 | 59 | 1015.8 |
| 20260507093624 | 59 | 216 | 1.0 | 2.0 | 0.00 | 0.00 | 0.00 | 58 | 1016.0 |
| 20260507092624 | 60 | 207 | 3.0 | 4.0 | 0.00 | 0.00 | 0.00 | 56 | 1015.9 |
| 20260507091622 | 60 | 211 | 5.0 | 7.0 | 0.00 | 0.00 | 0.00 | 57 | 1016.1 |
| 20260507090618 | 60 | 212 | 5.0 | 6.0 | 0.00 | 0.00 | 0.00 | 56 | 1016.1 |
| 20260507085634 | 60 | 246 | 5.0 | 6.0 | 0.00 | 0.00 | 0.00 | 59 | 1016.0 |
| 20260507084637 | 59 | 229 | 6.0 | 9.0 | 0.00 | 0.00 | 0.00 | 58 | 1016.2 |
| 20260507083631 | 60 | 211 | 6.0 | 8.0 | 0.00 | 0.00 | 0.00 | 60 | 1016.1 |
| 20260507082631 | 59 | 210 | 8.0 | 12.0 | 0.00 | 0.00 | 0.00 | 62 | 1016.0 |
| 20260507081629 | 59 | 234 | 6.0 | 11.0 | 0.00 | 0.00 | 0.00 | 63 | 1016.0 |
| 20260507080624 | 60 | 222 | 4.0 | 5.0 | 0.00 | 0.00 | 0.00 | 62 | 1016.0 |
| 20260507075643 | 60 | 223 | 7.0 | 13.0 | 0.00 | 0.00 | 0.00 | 62 | 1015.9 |
| 20260507074623 | 60 | 214 | 8.0 | 14.0 | 0.00 | 0.00 | 0.00 | 62 | 1015.8 |
| 20260507073620 | 61 | 212 | 9.0 | 12.0 | 0.00 | 0.00 | 0.00 | 61 | 1015.7 |
| 20260507072638 | 61 | 226 | 8.0 | 15.0 | 0.00 | 0.00 | 0.00 | 60 | 1015.8 |
| 20260507071632 | 62 | 218 | 8.0 | 12.0 | 0.00 | 0.00 | 0.00 | 59 | 1015.4 |
| 20260507070633 | 62 | 209 | 10.0 | 13.0 | 0.00 | 0.00 | 0.00 | 57 | 1015.3 |
| 20260507065708 | 62 | 211 | 8.0 | 13.0 | 0.00 | 0.00 | 0.00 | 58 | 1015.3 |
| 20260507064627 | 63 | 222 | 9.0 | 13.0 | 0.00 | 0.00 | 0.00 | 55 | 1015.3 |
| 20260507063625 | 63 | 218 | 9.0 | 13.0 | 0.00 | 0.00 | 0.00 | 54 | 1015.2 |
| 20260507062625 | 63 | 222 | 8.0 | 10.0 | 0.00 | 0.00 | 0.00 | 56 | 1015.4 |
| 20260507061621 | 64 | 214 | 9.0 | 16.0 | 0.00 | 0.00 | 0.00 | 53 | 1015.2 |
| 20260507060637 | 64 | 215 | 10.0 | 13.0 | 0.00 | 0.00 | 0.00 | 52 | 1015.3 |
| 20260507055637 | 65 | 222 | 9.0 | 13.0 | 0.00 | 0.00 | 0.00 | 51 | 1015.1 |
| 20260507054631 | 65 | 213 | 6.0 | 7.0 | 0.00 | 0.00 | 0.00 | 50 | 1015.1 |
| 20260507053653 | 66 | 207 | 4.0 | 5.0 | 0.00 | 0.00 | 0.00 | 48 | 1015.3 |
| 20260507052630 | 66 | 211 | 6.0 | 9.0 | 0.00 | 0.00 | 0.00 | 50 | 1015.2 |
| 20260507051628 | 66 | 218 | 5.0 | 7.0 | 0.00 | 0.00 | 0.00 | 50 | 1015.2 |
| 20260507050628 | 66 | 203 | 7.0 | 11.0 | 0.00 | 0.00 | 0.00 | 50 | 1015.1 |
| 20260507045620 | 67 | 227 | 5.0 | 7.0 | 0.00 | 0.00 | 0.00 | 50 | 1015.1 |
| 20260507044622 | 67 | 212 | 6.0 | 7.0 | 0.00 | 0.00 | 0.00 | 46 | 1015.1 |
| 20260507043640 | 69 | 215 | 7.0 | 12.0 | 0.00 | 0.00 | 0.00 | 42 | 1014.9 |
| 20260507042634 | 70 | 223 | 4.0 | 6.0 | 0.00 | 0.00 | 0.00 | 32 | 1015.0 |
| 20260507041635 | 70 | 232 | 5.0 | 7.0 | 0.00 | 0.00 | 0.00 | 32 | 1014.9 |
| 20260507040645 | 70 | 227 | 3.0 | 5.0 | 0.00 | 0.00 | 0.00 | 32 | 1014.8 |
| 20260507035646 | 71 | 215 | 6.0 | 9.0 | 0.00 | 0.00 | 0.00 | 32 | 1014.7 |
| 20260507034629 | 71 | 221 | 4.0 | 6.0 | 0.00 | 0.00 | 0.00 | 32 | 1014.4 |
| 20260507033625 | 72 | 232 | 3.0 | 4.0 | 0.00 | 0.00 | 0.00 | 31 | 1014.5 |
| 20260507032621 | 73 | 252 | 3.0 | 5.0 | 0.00 | 0.00 | 0.00 | 30 | 1014.6 |
| 20260507031618 | 73 | 299 | 5.0 | 8.0 | 0.00 | 0.00 | 0.00 | 30 | 1014.1 |
| 20260507030642 | 74 | 230 | 3.0 | 7.0 | 0.00 | 0.00 | 0.00 | 32 | 1014.1 |
| 20260507025634 | 75 | 228 | 4.0 | 8.0 | 0.00 | 0.00 | 0.00 | 31 | 1014.1 |
| 20260507024633 | 76 | 288 | 3.0 | 6.0 | 0.00 | 0.00 | 0.00 | 30 | 1014.0 |
| 20260507023630 | 76 | 298 | 5.0 | 7.0 | 0.00 | 0.00 | 0.00 | 29 | 1013.9 |
| 20260507022633 | 77 | 298 | 13.0 | 17.0 | 0.00 | 0.00 | 0.00 | 28 | 1013.6 |
| 20260507021630 | 77 | 310 | 6.0 | 8.0 | 0.00 | 0.00 | 0.00 | 30 | 1013.7 |
| 20260507020624 | 76 | 313 | 4.0 | 6.0 | 0.00 | 0.00 | 0.00 | 33 | 1013.7 |
| 20260507015622 | 77 | 337 | 4.0 | 7.0 | 0.00 | 0.00 | 0.00 | 32 | 1013.6 |
| 20260507014617 | 78 | 315 | 7.0 | 9.0 | 0.00 | 0.00 | 0.00 | 34 | 1013.3 |
| 20260507013641 | 79 | 296 | 10.0 | 15.0 | 0.00 | 0.00 | 0.00 | 30 | 1013.0 |
| 20260507012634 | 78 | 264 | 6.0 | 14.0 | 0.00 | 0.00 | 0.00 | 34 | 1013.2 |
| 20260507011653 | 77 | 217 | 5.0 | 9.0 | 0.00 | 0.00 | 0.00 | 40 | 1013.1 |
| 20260507010628 | 77 | 203 | 7.0 | 9.0 | 0.00 | 0.00 | 0.00 | 41 | 1013.0 |
| 20260507005632 | 77 | 206 | 8.0 | 13.0 | 0.00 | 0.00 | 0.00 | 41 | 1013.0 |
| 20260507004628 | 77 | 201 | 9.0 | 16.0 | 0.00 | 0.00 | 0.00 | 42 | 1012.8 |
| 20260507003650 | 77 | 206 | 8.0 | 13.0 | 0.00 | 0.00 | 0.00 | 42 | 1012.7 |
| 20260507002621 | 77 | 204 | 9.0 | 12.0 | 0.00 | 0.00 | 0.00 | 42 | 1012.8 |
| 20260507001622 | 78 | 202 | 7.0 | 16.0 | 0.00 | 0.00 | 0.00 | 42 | 1012.8 |
| 20260507000638 | 78 | 196 | 7.0 | 11.0 | 0.00 | 0.00 | 0.00 | 42 | 1012.6 |
| 20260506235635 | 79 | 192 | 6.0 | 9.0 | 0.00 | 0.00 | 0.00 | 41 | 1012.8 |
| 20260506234632 | 79 | 201 | 9.0 | 14.0 | 0.00 | 0.00 | 0.00 | 41 | 1012.7 |
| 20260506233630 | 79 | 210 | 6.0 | 11.0 | 0.00 | 0.00 | 0.00 | 41 | 1012.8 |